COSMOS 2249

Satellite information

Favourite Embed

Satellite Type and Status

PAYLOADIN ORBIT

Key statistics

Satellite COSMOS 2249 at a glance.

Uptime

11857

Days in orbit

Revolutions

≈ 12.6

Per day

Orbit

LEO

Low Earth Orbit

Inclination

82.6

Latest

Satellite identification and parameters

Extended collection of information and parameters for COSMOS 2249.

Object identification

Identified? True

Debris? False

Object name: COSMOS 2249

International designator: 1993-030E

Object number (NORAD): 22650

Object ID (CCSDS): 22650

Country: COMMONWEALTH OF INDEPENDENT STATES (CIS)

Current information (Y/N): Y

RCS size: MEDIUM

Orbital parameters

Period: 113.998 minutes

Inclination: 82.5812 deg

SMA: 7787.984 km

Apoapsis: 1416.28 km

Periapsis: 1403.419 km

RAAN: 112.3832 deg

Eccentricy: 0.0008257

Argument of periapsis: 106.8348 deg

Mean anomaly: 61.77 deg

Mean motion: 12.63179745 rev/day

Mean motion (dot): 0.00000014 rev/day2

B* drag term: 0.000019877292 1/REarth

Two-line elements (TLE)

Creation date: Oct. 27, 2025, 2:46 a.m.

Reference frame: TEME

Reference center: EARTH

Epoch: Oct. 26, 2025, 10:04 p.m. UTC

TLE line 0: 0 COSMOS 2249

TLE line 1: 1 22650U 93030E 25299.91974221 .00000014 00000-0 19877-4 0 9993

TLE line 2: 2 22650 82.5812 112.3832 0008257 106.8348 61.7700 12.63179745496572

Live tracking on map

Real-time ground track for satellite COSMOS 2249.

In-orbit conjunctions

A list of the most updated potential collisions computed for object COSMOS 2249.

Target Orbit TCA Probability of collision Miss distance Type
COSMOS 2247 LEO 2025-07-16 04:09:49 0.001362048 245.0 (m) PAYLOAD

Associated space launch

Second generation store-dump military communications satellite

COSMOS 2249 was lifted into orbit during the mission ‘Tsiklon-3 | Strela-3 89 to 94’, on board a Tsiklon-3 space rocket.

The launch took place on May 11, 1993, 2:56 p.m. from 32/1.

For more information about the launch, click the button.

Launch to space Tsiklon-3 | Strela-3 89 to 94
Tsiklon-3 | Strela-3 89 to 94

Agency: N/A

Status: Launch Successful

Launch date: May 11, 1993, 2:56 p.m. UTC

Rocket: Tsiklon-3

Launch pad: 32/1

Location: Plesetsk Cosmodrome, Russian Federation

...

Latest news about this satellite

There are no fresh news available about this satellite. Check back as we update our databases every day.


Newsletter sign-up

Weekly statistics, charts and insights to help you stay on top of the space industry.